Regional Weather Roundup
Issued by NWS Columbia, SC

Home | Current Version | Previous Version | Text Only | Print | Product List | Glossary On
Versions: 1 2 3 4 5 6 7 8 9 10 11 12 13 14 15 16 17 18 19 20 21 22 23 24 25 26 27 28 29 30 31 32 33 34 35 36 37 38 39 40 41 42 43 44 45 46 47 48 49 50
000
ASUS42 KCAE 011210
RWRCAE
REGIONAL WEATHER ROUNDUP
NATIONAL WEATHER SERVICE COLUMBIA SC
700 AM EST SUN MAR 01 2015

NOTE: "FAIR" INDICATES FEW OR NO CLOUDS BELOW 12,000 FEET WITH NO
SIGNIFICANT WEATHER AND/OR OBSTRUCTIONS TO VISIBILITY.

NOT ALL STATIONS ARE QUALITY CONTROLLED BY THE NATIONAL
WEATHER SERVICE. USE DATA WITH CAUTION...ESPECIALLY
DEWPOINT OBSERVATIONS.

SCZ001>056-GAZ040-063>065-077-011300-
...UPSTATE SOUTH CAROLINA...

CITY           SKY/WX    TMP DP  RH WIND       PRES   REMARKS
ANDERSON       LGT RAIN  34  31  88 NE5       30.53S WCI  30
6HR MIN TEMP:  34; 6HR MAX TEMP:  39; 6HR PCP:  0.05;

LIBERTY        MIX PCPN  33  34 100 MISG      30.51F
6HR MIN TEMP:  33; 6HR MAX TEMP:  48;

SPARTANBURG    MOCLDY    34  34 100 NE9       30.53F WCI  26
CLEMSON        CLOUDY    36  31  82 E6        30.53F HAZE    WCI  31
6HR MIN TEMP:  36; 6HR MAX TEMP:  41; 6HR PCP:  0.05;

GREENVILLE     LGT RAIN  33  30  88 NE6       30.54R FOG     WCI  28
6HR MIN TEMP:  32; 6HR MAX TEMP:  37; 6HR PCP:  0.06;

GREENWOOD      LGT RAIN  33  30  88 NE9       30.55F FOG     WCI  25
6HR MIN TEMP:  33; 6HR MAX TEMP:  37; 6HR PCP:  0.04;

GREER          MIX PCPN  32  30  92 N5        30.55R FOG     WCI  27
6HR MIN TEMP:  32; 6HR MAX TEMP:  36; 6HR PCP:  0.06;

ROCK HILL      FRZ RAIN  31  27  85 NE7       30.55F FOG     WCI  24
6HR MIN TEMP:  31; 6HR MAX TEMP:  36; 6HR PCP:  0.05;

CHESTER        LGT RAIN  34  32  93 N7        30.55F WCI  28
LAURENS        CLOUDY    32  32 100 N5        30.54S WCI  27


...CENTRAL SOUTH CAROLINA...

CITY           SKY/WX    TMP DP  RH WIND       PRES   REMARKS
COLUMBIA APT   LGT RAIN  34  32  92 N7        30.53F FOG     WCI  28
6HR MIN TEMP:  34; 6HR MAX TEMP:  40; 6HR PCP:  0.31;

COLUMBIA OWENS MIX PCPN  34  31  88 N3        30.56R
6HR MIN TEMP:  34; 6HR MAX TEMP:  39; 6HR PCP:  0.21;

DARLINGTON     CLOUDY    34  28  80 N8        30.56S WCI  27
6HR MIN TEMP:  34; 6HR MAX TEMP:  37;

FLORENCE       LGT RAIN  35  29  78 N9        30.54S WCI  28
6HR MIN TEMP:  35; 6HR MAX TEMP:  37; 6HR PCP:  0.03;

ORANGEBURG     LGT RAIN  35  32  88 NE7       30.52S FOG     WCI  29
6HR MIN TEMP:  35; 6HR MAX TEMP:  41; 6HR PCP:  0.07;

SUMTER SHAW    LGT RAIN  33  31  92 NE9       30.51F WCI  25
6HR MIN TEMP:  33; 6HR MAX TEMP:  37; 6HR PCP:  0.08;

NEWBERRY       DRIZZLE   32  32 100 NE13      30.55F WCI  22
AIKEN          DRIZZLE   34  34 100 N8        30.56R WCI  27
BARNWELL       DRIZZLE   36  36 100 NE6       30.53S WCI  31
MANNING        CLOUDY   N/A N/A N/A N7        30.52F
CAMDEN         LGT RAIN  32  32 100 CALM      30.54F
LANCASTER      LGT RAIN  32  32 100 CALM      30.55F
WINNSBORO      MIX PCPN  32  32 100 N6        30.53R WCI  26


...EASTERN AND COASTAL SOUTH CAROLINA...

CITY           SKY/WX    TMP DP  RH WIND       PRES   REMARKS
MYRTLE BEACH   CLOUDY    39  32  75 N9        30.54R WCI  33
N MYRTLE BCH   CLOUDY    38  33  82 N8        30.52S WCI  32
6HR MIN TEMP:  38; 6HR MAX TEMP:  41; 6HR PCP: TRACE;

CONWAY         CLOUDY    36  36 100 N6        30.52F WCI  31
MARION         CLOUDY    36  32  87 CALM      30.54F
HARTSVILLE     CLOUDY    32  32 100 N5        30.55F WCI  27
FLORENCE       LGT RAIN  35  29  78 N9        30.54S WCI  28
6HR MIN TEMP:  35; 6HR MAX TEMP:  37; 6HR PCP:  0.03;

DARLINGTON     CLOUDY    34  28  80 N8        30.56S WCI  27
6HR MIN TEMP:  34; 6HR MAX TEMP:  37;

CHARLESTON APT LGT RAIN  39  36  89 N8        30.49F WCI  33
6HR MIN TEMP:  39; 6HR MAX TEMP:  44; 6HR PCP:  0.01;

MOUNT PLEASANT CLOUDY    39  37  93 N3        30.48F FOG
WALTERBORO     DRIZZLE   39  37  93 N3        30.53R
BEAUFORT       CLOUDY    41  38  89 N8        30.49S
6HR MIN TEMP:  41; 6HR MAX TEMP:  43; 6HR PCP:  0.03;



...EASTERN GEORGIA...

CITY           SKY/WX    TMP DP  RH WIND       PRES   REMARKS
AUGUSTA BUSH F LGT RAIN  36  33  89 NE10      30.54R WCI  28
6HR MIN TEMP:  36; 6HR MAX TEMP:  41; 6HR PCP:  0.18;

AUGUSTA DANIEL LGT RAIN  36  34  92 N5        30.53S WCI  32
6HR MIN TEMP:  36; 6HR MAX TEMP:  42; 6HR PCP:  0.23;

THOMSON        CLOUDY    36  36 100 N5        30.58S WCI  32
6HR MIN TEMP:  36; 6HR MAX TEMP:  42;

WASHINGTON     DRIZZLE   36  36 100 N3        30.53S
CLAXTON        DRIZZLE   41  41 100 NE5       30.49S
SYLVANIA       DRIZZLE   39  39 100 NE6       30.50F WCI  34
6HR MIN TEMP:  39; 6HR MAX TEMP:  42;

STATESBORO     DRIZZLE   39  39 100 NE5       30.50S
6HR MIN TEMP:  39; 6HR MAX TEMP:  42;

SAVANNAH       CLOUDY    41  39  93 N8        30.49S FOG
6HR MIN TEMP:  41; 6HR MAX TEMP:  43; 6HR PCP: TRACE;



...SOUTHERN NORTH CAROLINA...

CITY           SKY/WX    TMP DP  RH WIND       PRES   REMARKS
CHARLOTTE      FRZ RAIN  30  27  86 N7        30.57F WCI  23
6HR MIN TEMP:  31; 6HR MAX TEMP:  36; 6HR PCP:  0.06;

MONROE         CLOUDY    31  26  82 NE12      30.54F WCI  22
6HR MIN TEMP:  31; 6HR MAX TEMP:  35; 6HR PCP:  0.03;

WADESBORO      MIX PCPN  32  29  90 N7        30.58S WCI  26
6HR MIN TEMP:  32; 6HR MAX TEMP:  36;

ROCKINGHAM     MIX PCPN  31  29  93 NE6       30.54S WCI  25
6HR MIN TEMP:  31; 6HR MAX TEMP:  36; 6HR PCP:  0.01;

RUTHERFORDTON  DRIZZLE   32  31  99 N3        30.54F
6HR MIN TEMP:  31; 6HR MAX TEMP:  34; 6HR PCP:  0.03;

ASHEVILLE      MIX PCPN  31  28  89 S5        30.50S FOG     WCI  26
6HR MIN TEMP:  30; 6HR MAX TEMP:  32; 6HR PCP: TRACE;


$$


USA.gov is the U.S. government's official web portal to all federal, state and local government web resources and services.